Tucson Davis Monthan, AZ

2:36 PM MST on April 20, 2018 (GMT -0700)
Davis-Monthan Air Force Base

Weather History for KDMA - October, 2013

Change the Weather History Date:

Thursday, October 17, 2013

  Actual Average Record
Temperature  
Mean Temperature 62 °F -  
Max Temperature 77 °F 83 °F 96 °F (2001)
Min Temperature 47 °F 56 °F 41 °F (1998)
Degree Days  
Heating Degree Days 3    
Growing Degree Days 12 (Base 50)    
Moisture  
Dew Point 16 °F    
Average Humidity 19    
Maximum Humidity 29    
Minimum Humidity 7    
Precipitation  
Precipitation 0.00 in - - ()
Sea Level Pressure  
Sea Level Pressure 29.94 in    
Wind  
Wind Speed 7 mph (South)    
Max Wind Speed 10 mph    
Max Gust Speed -    
Visibility 10 miles    
Events      
Averages and records for this station are not official NWS values.
T = Trace of Precipitation, MM = Missing Value Source: NWS Daily Summary

Daily Weather History Graph

Daily Weather History Graph

Search for Another Location

Airport or City:

Astronomy

Oct. 17, 2013 Rise Set
Actual Time 6:28 AM MST 5:48 PM MST
Civil Twilight 6:04 AM MST 6:12 PM MST
Nautical Twilight 5:35 AM MST 6:41 PM MST
Astronomical Twilight 5:07 AM MST 7:09 PM MST
Moon 5:02 PM MST (10/17) 5:08 AM MST (10/17)
Length of Visible Light 12h 08m
Length of Day
11h 19m
Waxing Gibbous, 98% of the Moon is Illuminated
Oct 17
Waxing Gibbous
Oct 18
Full
Oct 26
Last Quarter
Nov 3
New
Nov 9
First Quarter

Hourly Weather History & Observations

Time (MST) Temp. Dew Point Humidity Pressure Visibility Wind Dir Wind Speed Gust Speed Precip Events Conditions
12:58 AM 52.5 °F 16.7 °F 24% 29.99 in 10.0 mi SE 9.2 mph - N/A   Clear
1:58 AM 49.8 °F 16.5 °F 27% 30.00 in 10.0 mi SE 5.8 mph - N/A   Clear
2:58 AM 51.1 °F 16.7 °F 26% 29.97 in 10.0 mi SE 6.9 mph - N/A   Clear
3:58 AM 48.6 °F 16.2 °F 28% 29.98 in 10.0 mi SE 10.4 mph - N/A   Clear
4:58 AM 47.8 °F 16.3 °F 28% 29.99 in 10.0 mi SE 10.4 mph - N/A   Clear
5:58 AM 48.0 °F 16.5 °F 29% 30.00 in 10.0 mi SE 8.1 mph - N/A   Clear
6:58 AM 47.7 °F 16.9 °F 29% 30.02 in 10.0 mi SSE 8.1 mph - N/A   Clear
7:58 AM 52.2 °F 17.6 °F 26% 30.04 in 10.0 mi SSE 6.9 mph - N/A   Clear
8:58 AM 61.9 °F 18.1 °F 18% 30.02 in 10.0 mi South 4.6 mph - N/A   Clear
9:58 AM 66.4 °F 18.3 °F 16% 30.02 in 10.0 mi ESE 3.5 mph - N/A   Clear
10:58 AM 69.4 °F 19.6 °F 15% 30.00 in 10.0 mi Calm Calm - N/A   Clear
11:58 AM 72.7 °F 17.6 °F 12% 29.95 in 10.0 mi West 4.6 mph - N/A   Clear
12:58 PM 74.8 °F 15.6 °F 11% 29.92 in 10.0 mi West 6.9 mph - N/A   Clear
1:58 PM 76.5 °F 8.4 °F 7% 29.89 in 10.0 mi NW 6.9 mph - N/A   Clear
2:58 PM 77.4 °F 9.0 °F 7% 29.87 in 10.0 mi West 8.1 mph - N/A   Clear
3:58 PM 77.9 °F 15.1 °F 9% 29.86 in 10.0 mi NW 6.9 mph - N/A   Clear
4:58 PM 76.6 °F 14.2 °F 9% 29.86 in 10.0 mi NW 10.4 mph - N/A   Clear
5:58 PM 72.5 °F 10.8 °F 9% 29.87 in 10.0 mi NW 6.9 mph - N/A   Clear
6:58 PM 68.7 °F 12.6 °F 11% 29.89 in 10.0 mi NNW 4.6 mph - N/A   Clear
7:58 PM 66.2 °F 20.5 °F 17% 29.89 in 10.0 mi WNW 5.8 mph - N/A   Clear
8:58 PM 63.9 °F 21.2 °F 20% 29.88 in 10.0 mi West 5.8 mph - N/A   Clear
9:58 PM 59.5 °F 19.2 °F 21% 29.90 in 10.0 mi South 4.6 mph - N/A   Clear
10:58 PM 55.9 °F 16.7 °F 21% 29.91 in 10.0 mi South 6.9 mph - N/A   Clear
11:58 PM 52.9 °F 17.2 °F 25% 29.90 in 10.0 mi SE 5.8 mph - N/A   Clear